Date,TemperatureHighF,TemperatureAvgF,TemperatureLowF,DewpointHighF,DewpointAvgF,DewpointLowF,HumidityHigh,HumidityAvg,HumidityLow,PressureMaxIn,PressureMinIn,WindSpeedMaxMPH,WindSpeedAvgMPH,GustSpeedMaxMPH,PrecipitationSumIn
2013-1-1,17.0,12.2,6.0,9.0,3.6,-1.0,86,68,59,0.00,40.00,32,20,42,0.01
2013-1-2,15.0,12.1,9.0,6.0,3.4,-2.0,78,68,56,0.00,40.00,23,19,40,0.00
2013-1-3,24.0,14.2,10.0,8.0,-2.4,-11.0,66,48,23,0.00,40.00,22,8,27,0.00
2013-1-4,29.0,18.1,10.0,10.0,1.4,-6.0,64,48,37,0.00,40.00,7,2,10,0.00
2013-1-5,28.0,19.6,8.0,4.0,-0.6,-6.0,65,42,23,0.00,40.00,30,10,42,0.00
2013-1-6,44.0,29.2,15.0,10.0,-3.7,-16.0,42,24,14,0.00,40.00,21,6,32,0.00
2013-1-7,37.0,31.7,21.0,15.0,2.3,-9.0,58,29,17,0.00,40.00,50,24,65,0.00
2013-1-8,29.0,26.6,23.0,20.0,18.4,15.0,86,71,59,0.00,40.00,42,34,58,0.00
2013-1-9,41.0,33.1,26.0,24.0,15.2,5.0,67,49,23,0.00,40.00,37,11,49,0.00
2013-1-10,46.0,37.4,31.0,15.0,6.5,-3.0,50,29,13,0.00,40.00,37,11,55,0.00
2013-1-11,33.0,16.1,4.0,25.0,11.0,-1.0,100,81,45,0.00,40.00,36,22,49,0.21
2013-1-12,5.0,-0.2,-7.0,-1.0,-4.9,-10.0,88,80,70,0.00,40.00,22,9,35,0.00
2013-1-13,1.0,-3.7,-9.0,-4.0,-8.6,-16.0,88,79,63,0.00,40.00,10,4,14,0.00
2013-1-14,4.0,-2.8,-10.0,-8.0,-12.7,-19.0,74,62,50,0.00,40.00,34,14,46,0.00
2013-1-15,25.0,14.5,1.0,19.0,5.2,-14.0,77,66,50,0.00,40.00,34,28,49,0.00
2013-1-16,35.0,26.4,21.0,17.0,13.8,8.0,76,59,42,0.00,40.00,31,20,40,0.00
2013-1-17,37.0,26.1,14.0,17.0,9.0,2.0,75,51,26,0.00,40.00,29,9,44,0.00
2013-1-18,38.0,33.3,29.0,6.0,3.9,2.0,33,28,24,0.00,40.00,35,28,49,0.00
2013-1-19,40.0,33.5,28.0,6.0,1.7,-3.0,37,26,16,0.00,40.00,35,27,49,0.00
2013-1-20,38.0,30.4,26.0,7.0,3.1,1.0,43,31,23,0.00,40.00,34,22,49,0.00
2013-1-21,36.0,31.4,26.0,11.0,6.7,-1.0,46,36,21,0.00,40.00,39,31,54,0.00
2013-1-22,42.0,37.6,32.0,2.0,-4.0,-12.0,26,17,10,0.00,40.00,42,32,62,0.00
2013-1-23,51.0,43.1,37.0,10.0,-1.9,-14.0,32,15,9,0.00,40.00,36,21,50,0.00
2013-1-24,42.0,37.3,32.0,31.0,16.4,2.0,95,48,19,0.00,40.00,45,28,65,0.19
2013-1-25,39.0,35.4,33.0,28.0,26.2,24.0,77,69,57,0.00,40.00,36,18,51,0.00
2013-1-26,44.0,37.4,33.0,30.0,26.4,22.0,83,65,42,0.00,40.00,26,11,38,0.00
2013-1-27,42.0,35.2,31.0,31.0,24.8,18.0,99,68,38,0.00,40.00,28,12,39,0.03
2013-1-28,35.0,22.3,11.0,27.0,15.7,5.0,100,76,51,0.00,40.00,29,16,40,0.21
2013-1-29,16.0,10.8,6.0,9.0,3.8,0.0,94,73,58,0.00,40.00,29,17,41,0.02
2013-1-30,25.0,16.8,6.0,21.0,12.1,1.0,94,82,71,0.00,40.00,41,29,57,0.16
2013-1-31,26.0,24.4,22.0,22.0,19.6,17.0,90,82,75,0.00,40.00,37,29,50,0.12